Theta_e
320 318 320 322 322 323 323 319 319 321 319 320 322 324 326 325 326 325 324 325 325 325 325 324 323 323 323 321 321 322 323 323 322 322 322 322 321 320 319 309 297 295 296 297 302 312 319 320 320 319 319 319 317 317 316 316 317 313 307 303 300 297 297 296 295 296 297 297 296 295 295 295 296 296 300 305 305 306 308 309 309 309 309 309 309
322 320 318 322 323 324 324 321 321 322 320 322 325 324 325 325 325 325 325 324 324 324 324 323 323 323 322 321 321 323 323 323 322 323 322 321 320 319 319 312 301 295 296 296 299 311 319 319 319 319 318 317 315 315 315 315 314 310 306 301 297 297 297 296 295 296 296 296 295 294 294 296 297 299 301 305 306 308 309 308 308 308 309 308 308
324 321 317 320 324 323 324 323 322 323 323 325 326 324 325 325 325 325 325 323 322 323 323 322 323 322 321 321 321 323 323 322 322 321 320 320 320 319 317 312 304 298 296 295 297 307 315 318 318 318 318 316 314 314 314 314 310 306 304 300 296 296 296 296 296 295 295 296 295 293 295 298 301 302 304 306 307 308 308 308 308 309 308 308 309
323 321 320 321 322 320 321 323 322 323 325 325 325 325 325 325 325 325 324 323 322 323 322 322 322 322 321 322 322 323 323 323 322 320 319 320 318 317 315 309 305 301 295 295 295 299 308 315 317 317 316 315 313 313 312 310 305 301 299 297 297 297 295 296 296 295 295 295 296 296 299 303 304 305 307 307 308 308 307 307 308 308 308 308 308
324 323 323 322 320 318 320 323 324 325 326 325 325 325 324 324 324 325 324 323 323 323 322 321 322 322 323 323 323 323 323 323 321 319 319 319 318 316 312 307 306 303 295 295 295 295 302 309 312 314 314 313 311 311 309 305 299 296 296 296 298 298 295 295 296 295 295 296 298 301 304 306 306 307 307 307 307 307 307 306 306 307 307 308 307
325 324 323 324 322 321 323 325 326 326 326 325 325 324 324 324 324 324 324 323 323 323 321 322 322 322 323 323 323 323 323 322 319 319 319 318 315 311 307 305 305 303 296 294 295 294 297 301 302 304 306 307 306 305 304 300 296 295 295 297 300 300 297 295 295 295 296 299 302 305 306 307 306 306 306 306 306 306 306 306 306 306 306 307 307
327 325 324 325 325 325 326 326 326 325 326 325 324 324 324 324 325 325 324 323 323 322 322 323 322 322 322 323 323 322 322 321 318 319 318 316 310 302 302 303 303 302 297 294 294 294 294 294 294 295 296 297 297 298 298 297 295 294 294 297 301 301 298 296 295 295 298 303 305 306 306 306 306 306 305 305 305 305 305 305 305 305 305 305 305
327 326 325 325 326 326 326 326 326 326 326 325 324 325 325 324 324 325 323 322 323 323 323 323 322 322 322 323 322 321 321 319 317 318 316 312 306 300 298 299 300 299 297 295 294 294 294 294 294 294 294 293 293 294 294 294 294 293 293 296 300 301 300 299 296 296 301 304 306 306 305 305 305 305 305 305 304 304 304 304 304 304 304 304 304
327 326 326 325 325 327 326 325 326 326 325 324 324 325 324 324 324 324 323 322 323 323 323 323 323 322 322 322 322 321 321 319 317 316 312 308 305 301 297 296 297 297 296 296 295 294 294 294 294 294 294 293 293 293 293 293 292 292 292 294 299 301 303 303 299 299 303 305 305 305 304 304 304 304 304 304 304 303 303 303 303 303 303 303 303
326 327 327 325 325 327 326 326 326 326 326 324 325 324 323 323 324 324 323 323 323 323 323 323 323 321 321 322 322 321 320 318 317 311 306 304 303 300 296 296 296 295 295 296 295 294 294 294 294 294 294 293 293 293 292 292 292 292 291 293 298 301 303 306 303 301 303 304 304 304 303 304 304 303 303 303 303 303 303 303 303 303 303 303 303
323 327 327 326 326 327 326 327 326 326 326 325 324 324 324 323 324 324 324 324 324 324 323 321 321 321 321 322 321 321 318 318 317 308 303 302 298 298 297 295 295 294 295 295 294 294 293 293 293 293 293 293 293 292 292 291 291 292 291 291 297 300 303 305 304 302 303 303 303 303 303 303 303 302 302 302 302 302 302 302 302 302 302 302 302
321 324 327 327 326 327 326 326 326 326 326 325 325 324 324 324 324 324 324 325 324 324 323 320 321 322 321 321 321 321 318 317 315 307 304 301 295 296 296 295 295 294 294 294 293 293 293 293 293 293 293 292 292 292 291 290 290 291 290 290 293 298 302 304 304 302 302 303 302 302 302 302 302 302 302 302 302 302 302 301 302 301 301 301 301
322 322 324 326 326 327 327 327 327 327 326 326 325 324 324 324 324 324 324 325 325 324 323 320 320 321 321 321 321 320 317 317 314 309 304 299 295 295 295 296 297 295 294 293 293 293 293 293 292 292 292 292 292 291 291 290 290 290 290 289 290 294 299 303 303 302 301 302 302 302 301 301 301 301 301 301 301 301 301 301 301 301 300 300 300
325 324 323 324 325 326 327 327 327 327 327 327 325 324 324 323 324 325 325 325 325 324 322 320 320 321 319 319 319 319 318 316 314 312 306 297 294 295 294 296 298 297 295 293 293 293 293 293 292 292 292 292 291 291 290 289 289 289 289 290 289 291 296 301 302 301 300 301 301 301 300 300 300 300 300 300 300 300 300 300 300 300 300 300 300
327 326 325 324 325 326 326 326 327 327 327 327 326 325 325 324 325 325 325 325 324 324 323 321 320 320 318 319 319 318 318 315 311 312 308 297 294 295 294 296 297 298 296 293 293 293 292 292 292 292 292 292 291 290 290 289 289 289 289 289 289 289 293 298 300 300 300 300 300 300 299 299 299 299 300 300 300 299 299 299 299 299 299 299 300
327 327 326 326 326 326 326 326 327 327 327 327 326 326 326 325 326 326 325 325 323 323 323 322 321 319 318 318 316 316 319 316 310 310 306 296 294 295 294 295 295 297 296 294 293 292 292 292 292 292 292 292 291 290 289 289 289 289 289 289 289 289 289 295 299 299 299 299 299 299 299 299 298 299 299 299 299 299 298 298 299 299 299 299 300
328 328 327 327 327 326 326 326 326 327 327 327 326 326 326 326 326 326 325 325 323 321 322 321 321 320 318 317 315 317 321 317 310 308 304 298 295 294 294 294 294 294 295 294 293 292 292 291 291 292 292 293 291 290 289 288 288 288 289 288 288 288 288 293 296 296 297 298 298 298 298 298 298 298 298 298 298 298 298 298 298 298 298 299 299
328 328 328 328 327 327 327 326 326 326 327 326 326 326 325 326 326 326 325 325 322 321 321 322 321 321 319 318 317 318 319 314 310 308 306 302 297 293 294 294 294 293 294 295 294 292 292 291 291 291 292 293 291 290 289 288 288 288 288 288 288 288 288 290 291 292 296 296 296 297 297 297 297 297 297 297 297 297 297 297 297 297 298 298 298
329 329 329 328 328 328 327 327 327 326 326 326 326 326 326 326 326 326 326 325 322 321 322 322 321 320 319 318 317 317 315 311 310 309 307 306 301 296 294 293 293 293 293 295 295 293 291 291 291 291 292 293 291 291 290 288 288 288 288 288 288 288 288 289 288 289 293 293 292 294 296 296 296 296 296 297 296 296 296 296 296 297 297 297 297
330 330 329 329 329 328 328 328 327 327 326 326 326 326 326 326 326 326 326 325 322 321 322 322 321 320 319 317 317 316 314 310 309 308 308 308 304 301 298 294 293 293 292 293 294 293 292 291 291 291 292 293 292 291 290 289 288 288 288 288 288 288 288 289 288 288 290 289 288 291 293 294 294 295 295 296 295 295 296 296 296 296 297 297 297
330 330 330 330 329 329 328 328 328 327 327 327 326 327 327 327 327 326 326 326 323 322 322 322 322 321 319 317 316 315 312 309 308 306 306 307 306 303 300 297 296 296 295 293 292 292 292 292 292 292 292 292 292 292 291 289 288 288 288 288 287 288 288 288 288 289 289 288 288 289 291 293 293 294 294 294 295 295 295 295 295 296 296 296 296
330 330 330 330 330 330 329 328 328 328 327 327 327 327 327 327 327 326 326 325 323 323 323 323 321 320 319 317 315 312 307 303 303 304 304 304 305 303 300 299 298 297 297 295 293 293 293 293 293 293 292 292 293 293 291 289 288 287 288 287 287 287 288 288 288 289 289 288 288 289 291 291 292 292 293 293 294 294 294 294 295 295 295 295 295
331 330 330 330 330 330 330 329 328 328 328 328 328 328 327 327 327 326 326 325 323 323 324 323 321 320 319 317 314 311 305 300 300 303 302 301 303 302 299 299 298 297 298 296 295 295 293 293 294 294 293 292 293 293 291 290 288 288 288 287 287 288 288 288 287 289 289 289 288 289 290 291 291 291 291 292 292 293 293 293 294 294 294 294 294
331 331 331 331 330 330 330 330 329 328 328 328 328 328 328 327 327 327 326 325 324 323 324 323 321 319 319 317 315 310 303 298 299 301 302 301 302 300 299 299 297 296 297 297 297 296 294 294 295 294 293 293 293 292 291 289 288 288 288 287 287 287 288 287 287 288 289 289 289 289 290 290 290 290 290 291 291 291 292 293 293 293 293 293 293
331 331 331 331 331 331 330 330 330 329 329 328 328 328 328 328 327 327 326 324 323 323 324 323 320 319 318 317 316 312 303 298 297 297 299 300 299 298 297 297 296 295 296 296 297 297 295 294 295 294 294 293 292 292 291 289 287 287 287 287 286 287 287 286 287 288 289 289 289 289 289 289 289 290 290 290 290 290 291 292 292 293 293 292 293
331 331 331 331 331 331 330 330 330 329 329 328 328 328 328 328 327 326 325 324 322 322 323 323 320 318 317 316 316 312 304 300 298 295 296 298 298 297 296 295 294 294 295 296 296 297 296 294 294 294 294 293 292 292 291 289 287 287 286 286 286 286 286 286 286 288 288 288 288 289 289 289 289 289 289 289 289 289 290 291 291 291 292 292 292
331 331 331 331 331 331 330 330 330 329 329 328 328 328 328 327 326 325 324 323 322 322 322 321 319 317 316 315 314 310 303 301 301 296 295 298 297 295 295 295 294 294 294 294 295 296 295 294 293 293 293 293 292 292 290 288 287 286 286 286 286 285 285 285 285 286 287 288 288 288 288 288 288 288 288 288 288 289 289 290 290 290 291 291 291
330 331 331 331 331 331 331 330 329 329 329 329 328 328 327 327 325 324 324 323 322 322 321 320 319 317 316 314 312 308 303 302 302 298 295 297 297 294 293 294 295 295 294 293 293 294 295 294 293 293 293 292 292 291 289 287 286 286 285 285 285 285 285 285 285 285 285 287 288 287 288 287 287 287 287 287 287 288 289 289 289 289 290 290 290
329 330 330 330 330 330 330 330 329 329 329 329 328 327 327 326 325 324 323 323 322 321 321 320 319 316 314 313 311 307 304 302 302 298 295 295 294 292 292 293 294 296 296 295 293 292 294 294 292 293 292 292 291 290 288 287 286 285 285 285 285 284 284 285 285 284 285 286 287 287 287 287 287 286 287 287 287 287 288 289 289 289 289 290 290
329 329 329 329 330 330 329 330 329 329 329 328 328 327 326 324 324 323 323 323 322 321 320 319 317 315 314 312 309 306 304 302 299 296 294 293 292 292 292 292 292 294 295 295 294 292 293 293 291 291 291 291 290 288 287 286 286 285 284 285 285 284 284 284 284 284 284 285 286 286 286 286 286 286 286 286 286 287 287 288 288 288 288 289 289
329 329 329 330 330 330 329 329 329 329 329 328 327 326 324 323 323 322 322 322 321 320 319 317 316 314 312 311 308 305 303 299 295 293 292 292 292 291 291 291 291 291 291 292 293 292 292 292 291 290 290 290 288 287 286 286 286 285 284 284 284 284 284 284 284 283 283 285 285 284 284 285 285 285 285 285 286 286 287 287 287 287 288 288 288
330 330 330 330 330 330 329 329 329 329 328 327 326 324 323 323 323 323 322 321 320 319 318 316 314 313 311 309 307 304 299 295 293 292 292 291 291 291 291 290 290 290 290 290 291 291 291 290 289 290 289 288 287 286 286 286 286 285 284 284 284 283 284 284 284 283 283 284 284 282 282 284 284 284 284 284 285 285 286 286 286 286 287 287 288
330 330 330 330 330 330 329 328 328 327 327 326 324 323 323 323 322 322 322 321 319 317 316 314 312 311 308 306 304 300 295 292 292 292 291 291 290 290 290 290 290 290 289 289 290 290 290 289 288 288 288 287 286 286 286 285 285 284 284 284 283 283 284 283 283 283 282 283 282 281 281 282 283 283 283 283 284 284 285 285 285 285 286 287 287
330 330 330 330 330 329 329 328 327 327 325 324 324 323 323 322 322 321 320 319 317 315 314 312 310 308 305 303 300 296 292 291 291 291 291 291 290 290 289 289 289 289 289 289 289 288 288 289 288 287 287 286 286 286 285 285 285 284 284 283 283 283 283 283 283 283 283 282 281 280 281 281 281 282 282 283 283 284 284 284 284 285 285 286 286
330 330 330 330 330 329 329 328 327 327 325 323 322 322 322 322 321 320 319 318 317 315 313 311 309 306 302 299 296 293 291 291 291 291 291 290 290 289 289 289 289 289 288 288 288 287 288 288 287 286 286 286 286 286 285 285 285 284 283 283 283 283 282 283 283 283 282 281 280 280 281 281 281 281 281 282 282 283 283 283 283 284 285 285 286
330 330 330 330 329 329 328 328 327 325 323 322 321 321 321 322 321 320 319 317 316 315 313 311 308 305 300 296 293 291 290 290 290 290 290 290 289 289 289 289 288 288 288 287 287 287 287 287 287 287 286 285 286 285 285 285 284 283 283 283 283 283 282 282 283 282 282 281 280 280 281 281 281 280 281 281 281 282 282 282 283 283 284 285 285
329 329 329 329 329 328 328 327 326 325 322 321 320 320 320 321 321 320 319 317 315 314 313 310 308 304 299 294 292 291 290 290 290 290 290 289 289 289 288 288 288 288 287 287 286 286 286 286 286 286 285 285 285 285 284 284 284 283 283 283 282 283 283 282 282 282 281 281 280 280 281 281 280 280 280 280 281 281 281 281 282 283 283 284 284
329 329 329 328 328 327 327 326 325 324 322 321 320 319 319 320 320 319 318 317 315 313 311 309 306 303 297 293 291 291 290 291 290 290 290 289 289 289 288 288 288 287 287 286 286 286 286 286 286 286 286 285 285 284 284 284 283 283 283 283 282 282 282 282 282 281 281 280 280 280 281 280 280 280 280 280 280 281 281 281 281 282 283 283 284
328 328 327 327 326 326 325 325 325 324 322 320 319 317 318 319 318 317 316 315 313 311 309 307 304 300 295 292 291 291 291 291 291 290 290 289 289 289 288 288 287 287 286 286 286 286 286 286 286 286 285 285 284 284 284 283 282 282 282 282 282 282 282 281 282 281 281 281 281 280 281 280 280 279 280 280 280 281 281 281 281 281 282 283 283
324 325 325 325 324 323 324 325 325 323 321 319 318 317 318 317 315 314 314 314 312 309 306 303 300 297 293 291 291 291 291 291 291 290 290 290 289 289 288 288 287 287 286 286 286 286 286 285 286 285 285 284 284 284 284 283 282 282 282 281 280 281 281 281 281 281 281 282 281 280 281 281 280 279 280 280 280 281 281 281 281 281 282 282 283
322 322 323 323 322 323 324 324 323 320 318 317 317 317 317 315 313 312 313 313 311 307 303 299 296 293 292 291 291 291 291 291 290 290 290 290 290 289 288 288 287 287 286 286 286 286 286 285 285 285 285 284 284 283 283 282 282 282 281 280 279 279 279 280 280 280 280 281 282 281 280 280 280 279 279 279 280 280 280 280 280 281 281 282 282
321 321 322 322 322 322 323 322 320 317 316 315 315 316 316 315 314 313 313 312 309 304 301 297 294 292 291 290 290 290 290 290 290 289 289 289 289 289 289 288 288 287 286 286 286 286 286 285 285 285 284 284 283 283 282 282 282 281 281 280 279 278 278 278 280 280 279 280 281 281 279 279 279 279 279 279 279 279 279 279 280 281 281 281 281
319 319 320 320 320 320 318 317 316 315 315 314 314 314 314 314 314 314 312 310 306 302 299 296 293 291 290 290 289 289 289 289 289 289 288 288 288 288 288 287 287 287 287 286 286 286 285 285 285 284 284 284 283 283 282 282 282 282 280 279 278 278 277 277 278 279 279 279 280 280 279 279 279 279 279 278 278 279 279 279 279 280 281 281 280
317 317 317 317 317 317 316 314 314 315 315 314 313 313 313 313 312 311 310 309 306 301 297 294 292 291 290 289 289 288 289 289 289 288 288 287 287 287 287 287 287 287 286 286 286 286 285 285 285 285 284 284 283 283 282 282 282 281 280 279 278 278 277 277 277 278 278 278 278 279 279 278 278 278 278 278 278 279 279 278 279 280 280 280 279
314 315 315 315 315 314 314 313 313 313 313 312 312 311 311 310 309 309 310 309 306 301 296 293 291 291 290 289 288 288 288 288 288 288 288 287 287 287 287 286 286 286 286 286 286 285 285 285 285 285 284 284 283 283 283 282 282 281 279 279 278 278 277 277 277 277 277 277 277 277 278 278 278 278 278 278 278 278 278 278 278 279 279 279 278
312 313 313 313 313 313 312 312 312 312 311 311 311 309 308 307 306 306 306 305 303 299 295 292 291 290 290 290 289 288 288 288 288 288 287 287 287 286 286 286 286 286 285 285 285 285 285 285 284 284 284 284 283 283 283 282 282 281 279 279 278 278 277 277 277 277 277 276 276 276 277 278 277 277 278 278 278 278 278 277 278 278 279 278 277
311 311 311 312 312 312 311 310 310 310 310 309 308 307 306 305 304 303 303 302 299 297 293 291 290 290 290 290 289 289 289 288 288 288 287 287 287 286 286 286 286 286 285 285 285 285 285 285 284 284 283 283 283 283 283 282 281 280 279 279 278 278 277 277 277 278 277 276 276 276 276 276 276 277 277 278 278 278 277 277 277 278 278 278 277
309 309 310 310 311 310 309 308 308 308 308 307 306 305 306 305 304 303 302 300 298 295 292 291 290 290 290 289 289 289 289 289 288 288 287 287 287 286 286 286 286 285 285 285 285 285 284 284 284 284 283 283 283 283 282 282 281 280 279 278 278 278 277 277 277 277 277 276 275 275 275 275 275 277 278 278 278 278 278 277 277 277 277 277 277
308 308 308 308 308 307 307 306 306 306 306 306 305 306 306 306 305 303 301 299 297 294 291 290 289 289 289 289 289 289 289 289 288 287 287 286 286 286 286 286 285 285 285 285 284 284 284 284 284 283 283 282 282 282 282 282 281 280 279 279 279 278 277 276 275 276 276 276 275 275 275 275 275 275 277 278 278 278 277 277 277 277 276 277 277
307 306 305 304 304 304 303 303 304 304 304 304 304 305 306 306 305 304 301 298 294 292 289 289 288 288 288 288 288 288 288 288 288 287 287 286 286 286 286 285 285 285 285 285 284 284 284 283 283 283 282 281 281 282 282 281 280 280 280 279 279 278 277 276 275 275 276 275 276 276 275 276 275 274 275 277 278 277 277 277 276 276 276 276 277
304 304 303 303 302 302 301 301 301 302 302 303 303 303 303 303 302 301 298 295 291 289 288 287 287 287 287 287 287 287 287 288 288 287 287 286 286 286 286 285 285 285 286 285 285 284 284 283 283 282 281 281 281 281 281 280 280 279 279 279 279 278 277 277 275 275 276 276 275 275 275 275 275 274 274 274 276 276 277 277 276 276 276 276 276
Wind_Speed
14 13 14 12 10 8 7 7 7 6 5 5 5 5 3 1 4 3 4 3 1 2 2 2 3 1 3 5 5 4 3 2 4 3 3 5 6 7 9 10 11 12 12 11 12 14 15 15 15 16 16 17 17 18 18 18 18 18 19 20 20 21 21 22 22 23 23 23 24 24 25 26 27 27 27 26 27 27 27 28 28 28 28 29 29
12 12 14 13 12 11 10 9 8 6 6 6 5 4 1 1 4 4 5 5 5 4 2 2 1 2 4 5 4 4 3 1 3 3 2 4 5 6 7 8 10 13 12 12 13 15 15 16 16 16 16 17 17 17 17 18 18 18 19 20 20 21 21 21 21 22 22 23 24 25 25 26 26 26 26 26 26 26 27 27 27 28 29 29 30
11 11 13 14 14 14 13 10 9 7 6 6 5 5 5 3 2 3 4 2 2 2 1 1 1 2 3 2 3 3 3 1 1 2 3 3 4 4 5 6 8 12 12 12 14 15 16 17 16 16 16 16 17 17 17 17 17 18 19 19 20 20 20 20 21 21 22 23 24 25 25 25 25 25 25 25 25 25 26 27 27 28 29 29 30
11 11 12 14 14 14 13 11 10 8 7 7 6 7 7 6 4 3 3 1 3 2 1 1 1 1 1 0 1 3 4 2 1 3 4 3 3 3 3 5 7 10 12 12 13 15 17 17 17 17 16 16 16 17 17 17 17 17 18 18 19 19 19 20 21 22 22 23 24 24 24 24 24 24 24 24 24 25 26 27 28 28 29 30 30
13 12 12 13 12 12 13 10 8 9 10 9 7 7 7 7 6 4 3 1 1 1 1 3 3 1 0 1 2 5 5 2 2 5 4 3 3 1 2 3 5 8 11 11 12 14 16 17 17 17 16 16 16 16 17 17 17 17 17 18 19 19 19 20 21 22 22 23 23 22 22 22 22 23 23 24 24 26 26 27 28 29 29 30 31
14 13 12 12 10 11 12 9 7 9 11 9 7 5 4 5 6 5 4 3 3 3 3 3 4 3 1 1 3 6 5 2 4 6 5 4 2 1 2 4 5 7 10 11 12 14 15 16 16 16 15 15 15 16 16 17 17 17 17 18 18 18 19 20 20 21 22 22 21 21 21 21 22 23 23 24 25 26 27 28 29 30 30 31 32
15 14 14 13 11 11 12 11 10 10 10 9 7 6 6 6 6 6 6 4 3 5 4 3 5 5 3 3 4 6 5 4 6 7 6 4 3 4 5 5 4 5 8 11 13 14 14 14 14 13 13 14 14 15 15 16 17 17 17 17 18 18 19 19 20 21 21 21 21 21 21 21 22 23 24 25 26 27 28 29 30 31 32 32 33
16 16 15 16 15 14 14 13 13 13 12 10 8 8 8 8 8 8 8 6 5 6 6 5 6 6 5 4 4 6 6 4 7 8 6 5 4 5 6 5 4 4 7 10 12 12 12 11 11 11 11 12 13 14 15 15 16 16 16 17 18 18 18 19 20 21 20 20 20 20 21 22 23 24 25 26 27 28 29 30 31 32 33 34 35
18 17 16 17 18 16 15 15 15 14 12 11 10 8 9 9 9 9 8 8 7 6 6 6 6 6 5 4 4 5 6 5 6 7 7 6 5 5 5 5 5 5 6 8 10 10 10 9 8 9 9 10 12 14 14 14 15 15 16 16 17 17 17 18 19 20 19 19 20 21 22 23 24 25 25 26 28 29 30 31 32 33 34 35 36
20 18 17 18 19 18 16 15 15 15 13 12 11 10 11 11 10 9 9 9 9 9 8 7 8 7 5 5 6 6 7 7 6 7 8 7 5 4 5 5 5 6 6 8 9 9 8 7 7 8 8 9 11 13 14 14 14 15 15 16 17 17 17 17 18 19 19 20 21 21 22 24 25 25 26 28 29 30 31 32 33 34 35 35 36
23 21 20 19 19 19 18 17 15 16 15 14 13 13 13 14 12 11 11 10 10 10 8 6 8 9 6 7 7 7 8 8 7 8 7 6 5 5 6 5 6 7 8 9 9 9 8 8 7 7 8 9 10 12 14 15 14 15 15 16 17 16 17 17 18 19 19 20 21 22 23 24 25 26 27 29 30 31 32 33 34 34 35 36 36
24 24 24 23 22 20 19 18 16 16 17 16 16 16 16 16 15 13 12 12 11 10 7 6 9 8 6 9 9 8 9 8 8 9 7 5 5 6 6 6 7 8 9 10 10 9 8 8 7 7 8 9 11 12 14 15 15 15 15 16 16 16 17 18 18 19 19 20 21 23 24 25 25 26 28 29 30 31 32 33 34 34 35 36 36
25 26 27 26 24 23 21 21 20 19 18 18 18 19 18 17 16 14 14 13 13 12 9 8 9 6 7 11 10 10 10 9 9 10 8 6 6 7 7 7 8 9 10 10 9 8 7 7 7 7 8 10 11 11 13 15 15 15 16 16 16 16 17 18 18 19 20 21 22 23 24 25 26 27 28 29 30 31 32 33 34 34 36 36 36
25 26 27 27 26 25 25 24 23 22 21 20 20 20 19 19 18 15 14 14 15 13 10 9 8 7 10 10 8 9 10 10 11 10 8 6 7 7 7 9 9 9 10 9 8 7 6 6 6 7 8 9 11 11 12 15 16 16 16 16 16 16 17 18 18 20 20 21 23 23 24 25 26 27 28 29 30 31 33 33 34 35 36 36 36
27 26 27 28 27 26 27 26 25 24 23 22 22 22 20 20 20 18 16 15 15 14 13 11 9 9 11 7 4 6 6 9 12 11 10 7 7 8 8 9 10 9 9 9 8 7 6 6 6 6 7 8 10 11 13 16 17 16 16 16 16 16 17 18 18 19 20 21 23 23 24 25 26 27 28 29 30 31 33 33 34 35 35 35 36
30 28 28 28 27 27 27 27 26 26 26 25 25 24 22 22 22 21 19 17 16 16 15 14 12 11 9 4 3 5 2 7 11 11 11 8 7 8 8 9 9 9 10 10 9 7 6 5 5 5 6 7 9 11 13 16 17 15 16 17 16 16 17 18 18 19 20 21 23 23 24 25 26 27 28 30 31 32 33 33 34 34 34 35 37
32 31 30 30 29 28 28 28 27 27 27 27 26 26 24 24 23 22 21 20 19 18 17 16 15 15 12 5 4 3 3 9 11 9 12 11 7 8 8 8 8 9 10 11 9 7 6 5 4 4 5 6 8 12 14 17 17 16 16 16 16 17 18 18 17 19 20 21 22 23 23 24 26 28 29 30 31 32 33 33 34 34 34 35 37
34 33 32 32 31 30 29 29 28 28 28 27 27 27 26 25 24 22 21 22 21 19 18 18 17 18 18 13 8 3 4 12 9 3 9 11 9 9 8 7 7 8 9 11 10 7 7 5 4 4 4 5 8 11 14 17 17 16 16 16 16 17 18 18 18 19 19 20 21 22 23 25 27 28 29 30 31 32 32 32 33 33 34 35 36
36 35 34 34 33 32 31 30 29 29 28 28 29 28 28 27 26 24 22 22 22 20 19 20 19 17 19 19 16 10 8 14 9 4 5 8 11 11 9 8 7 6 6 8 10 8 7 5 4 4 4 5 8 10 14 17 18 16 15 15 15 16 18 18 18 19 19 21 22 23 24 26 28 28 29 30 30 31 31 32 32 32 34 35 36
36 36 36 35 35 34 33 32 31 31 29 30 30 29 29 28 27 25 23 23 23 22 20 21 21 20 19 19 18 15 13 15 14 11 7 3 8 10 10 11 9 6 4 4 8 10 7 6 4 5 4 5 8 10 14 17 18 16 15 14 15 16 16 17 18 19 20 22 22 23 24 26 27 27 28 29 29 30 30 31 31 32 33 35 35
38 37 37 36 36 35 34 34 34 33 32 31 30 29 29 29 28 26 25 24 24 23 22 22 22 21 19 19 18 16 14 13 15 14 8 5 5 6 10 11 9 9 6 2 4 8 8 5 3 3 5 6 7 10 13 17 18 16 14 14 15 15 15 16 18 19 21 22 22 23 24 25 26 26 27 28 28 29 29 30 30 31 33 34 35
40 39 38 38 37 37 36 36 36 35 35 33 32 31 30 29 29 27 26 25 25 24 24 23 23 22 20 20 20 18 14 11 14 14 9 7 5 7 14 13 9 11 10 7 3 4 7 5 1 1 4 5 6 9 12 17 19 16 14 15 15 15 15 16 17 18 20 20 21 22 24 25 25 26 26 27 27 28 28 29 29 31 32 33 34
40 40 40 39 39 39 38 37 37 37 37 36 35 33 31 30 30 28 27 27 26 25 25 24 23 23 22 21 22 23 20 15 18 20 13 8 6 6 14 14 10 11 11 11 8 3 5 6 4 3 4 5 6 9 13 18 19 16 14 15 15 16 15 15 16 18 19 19 20 21 23 24 24 25 26 26 26 27 27 28 29 31 31 32 32
39 40 41 41 40 40 40 39 38 39 39 38 36 34 32 31 30 29 28 28 26 25 26 26 25 23 23 23 22 24 23 16 18 23 18 14 12 10 11 11 7 8 9 11 12 7 5 7 7 5 5 6 8 11 14 18 18 15 14 14 14 15 14 14 15 16 17 17 19 20 21 22 23 24 25 25 25 26 26 27 28 30 31 31 31
39 40 41 42 41 41 41 41 41 40 40 39 37 35 33 31 30 30 30 28 27 26 28 28 26 24 24 24 21 22 23 16 14 20 18 15 15 12 10 9 6 7 8 9 12 10 6 7 7 7 7 8 10 12 14 18 17 14 13 13 13 14 13 12 13 15 16 16 17 19 20 22 22 23 23 24 24 25 26 26 28 29 30 30 31
41 42 42 41 42 42 42 42 42 41 40 39 37 36 34 32 31 31 30 29 27 27 29 29 27 25 24 24 22 21 22 18 15 19 18 16 17 16 12 7 5 7 7 7 10 10 8 7 7 8 8 9 10 11 14 17 14 12 12 11 12 14 13 11 12 13 14 15 17 19 20 21 22 22 22 23 23 24 25 26 27 28 29 30 31
41 40 40 40 41 42 42 42 41 41 40 39 37 36 34 33 31 30 30 29 28 28 30 29 26 25 24 24 23 22 22 20 18 19 19 17 17 19 17 9 3 3 4 6 9 9 9 9 7 8 9 9 10 11 14 15 12 11 11 10 11 13 13 11 10 10 13 15 17 18 19 20 21 21 21 22 23 23 24 25 27 28 29 31 33
39 39 39 39 40 41 41 41 41 41 40 39 37 36 35 33 31 29 28 29 29 30 31 29 27 26 25 24 24 24 23 21 20 19 18 17 16 17 19 16 9 3 2 4 5 6 9 10 8 8 9 9 9 11 14 13 9 10 11 10 11 13 13 11 9 9 12 15 16 17 18 19 20 20 21 21 22 23 24 25 26 26 28 31 33
38 38 39 39 39 40 41 41 41 41 40 39 37 36 34 32 30 28 28 30 31 31 31 29 27 26 26 26 26 26 25 23 22 20 18 17 17 16 16 16 13 7 4 4 5 6 9 10 9 8 9 9 9 12 12 10 8 10 11 9 10 13 13 11 9 8 11 14 16 17 18 19 19 19 20 21 21 22 23 24 25 26 27 30 32
38 38 38 38 39 40 40 40 41 41 40 38 37 35 33 32 30 29 30 32 33 32 31 28 26 27 27 28 28 28 27 25 23 20 18 17 17 17 15 14 13 10 8 5 4 7 10 9 9 9 9 9 10 12 10 8 8 10 11 9 9 12 12 10 9 8 10 14 16 17 18 18 18 18 20 20 21 21 22 23 24 25 27 29 31
37 38 38 37 38 39 39 40 40 40 39 37 36 35 33 32 30 30 32 34 34 32 29 27 27 27 28 30 30 29 28 26 23 21 19 18 17 17 16 15 13 11 11 8 3 6 11 10 9 9 9 9 10 9 7 6 7 10 11 8 9 11 10 10 9 8 10 13 15 16 17 17 17 18 19 19 20 20 21 22 23 24 26 28 30
37 38 38 38 38 38 38 39 39 39 38 37 36 36 34 33 32 33 34 35 33 31 29 28 28 28 30 32 32 31 29 27 24 22 21 20 18 17 16 16 14 13 12 11 6 6 10 10 8 8 9 8 7 6 5 5 6 9 10 8 9 9 9 10 9 9 11 13 15 15 15 16 16 17 18 18 19 19 20 21 22 24 26 27 29
36 36 37 37 37 38 38 38 38 38 38 38 38 37 36 35 35 36 36 36 34 32 30 30 29 29 31 33 33 32 30 27 25 24 22 21 20 19 17 16 16 14 14 13 10 8 9 10 9 8 8 6 4 4 5 5 6 9 9 8 9 9 9 10 9 10 12 13 14 14 13 14 15 16 17 18 18 18 19 20 21 23 25 27 28
35 36 36 36 36 37 37 37 37 37 38 39 40 39 38 38 37 37 37 37 35 33 31 30 30 30 32 34 34 32 29 27 26 24 23 22 20 19 18 17 16 15 14 14 12 10 10 11 9 8 7 5 3 2 5 6 7 10 8 7 9 8 9 10 9 10 13 14 16 14 12 13 15 15 16 17 17 18 18 19 21 23 25 26 27
34 34 34 34 35 35 35 36 37 38 39 40 41 42 41 40 39 39 38 37 35 33 32 31 31 32 33 34 34 32 29 27 26 25 23 22 21 20 18 17 16 16 15 14 13 12 11 11 9 6 4 3 2 3 5 6 8 10 8 8 9 8 10 10 8 10 14 16 17 15 12 13 14 15 16 16 16 17 18 19 20 22 24 25 26
32 33 34 33 33 33 34 36 38 39 40 41 42 43 43 42 40 40 39 37 36 34 32 32 33 34 35 35 34 32 30 28 27 25 24 23 22 20 19 17 16 15 15 14 13 12 11 11 9 6 4 2 2 4 6 7 8 10 8 8 9 9 10 10 8 9 13 16 17 14 12 13 15 15 16 15 15 16 18 18 19 22 24 25 26
30 31 32 33 34 34 34 35 36 38 40 41 43 44 44 42 41 41 40 38 36 34 32 32 33 35 36 35 34 32 31 30 28 27 26 24 23 21 20 18 17 15 14 14 13 12 12 11 9 6 4 3 3 5 7 7 8 9 7 9 11 11 11 9 8 8 12 16 16 13 12 14 15 16 16 15 14 15 17 17 18 21 23 24 25
30 31 33 34 34 32 31 32 35 38 40 42 44 45 44 43 42 41 41 38 35 34 33 33 34 36 37 36 35 34 32 31 30 29 27 25 24 22 21 19 18 16 15 14 14 13 12 10 8 6 5 5 5 5 6 8 9 8 7 10 12 12 12 10 7 7 11 16 16 14 13 15 16 17 16 14 13 12 14 16 17 20 23 24 25
28 30 30 30 30 29 30 33 37 39 40 42 44 43 42 42 41 41 39 36 34 33 33 33 35 37 38 37 35 34 33 31 30 29 28 26 25 23 21 20 18 17 16 15 14 13 12 10 9 8 8 7 6 6 6 8 8 6 8 12 13 13 13 11 7 7 12 16 16 13 12 14 17 17 15 14 12 10 12 14 16 20 23 24 24
30 30 31 32 34 35 36 36 37 39 41 42 43 43 42 41 41 39 37 34 33 33 33 34 36 38 38 37 35 33 32 30 29 28 27 26 25 24 22 20 19 18 16 15 15 14 12 11 10 10 10 9 8 7 7 7 6 4 7 12 13 13 13 10 6 8 13 17 16 13 11 13 17 17 16 14 12 10 10 12 16 21 23 23 24
29 29 30 33 35 35 35 35 36 37 39 40 42 43 43 42 39 37 35 33 33 34 34 35 36 37 37 36 34 32 30 29 27 26 25 25 24 23 23 21 20 19 17 16 16 15 14 14 13 12 12 12 10 9 7 6 5 4 6 9 10 10 11 9 6 7 13 17 17 14 12 14 18 18 18 16 12 10 9 11 16 21 22 22 23
27 27 27 28 29 30 32 34 34 35 36 38 40 41 42 40 38 36 35 34 34 34 35 36 36 36 36 35 33 31 30 28 27 25 25 24 22 21 20 20 20 19 18 18 18 17 16 16 16 14 14 13 11 9 8 6 5 4 6 8 8 7 9 9 7 7 12 16 16 15 12 13 17 18 18 17 13 9 9 11 15 20 21 21 23
25 26 27 27 28 29 30 30 31 32 34 35 36 37 38 37 37 38 37 35 34 34 35 37 38 37 36 34 33 32 31 29 28 26 25 24 23 21 19 18 18 18 18 18 18 18 18 17 16 16 16 14 11 10 9 7 6 5 6 7 6 5 6 7 6 6 11 14 16 16 12 11 16 18 17 16 12 8 9 12 14 18 20 21 22
19 21 22 24 25 26 26 27 28 30 31 33 34 34 35 36 38 38 35 33 33 35 36 38 39 38 37 36 35 34 32 31 29 28 27 26 24 22 20 19 18 18 17 17 17 17 18 17 17 16 15 13 11 11 10 8 6 6 7 6 4 4 5 5 5 7 10 12 13 15 11 10 16 18 17 16 11 7 8 11 13 17 20 20 21
16 17 19 21 22 23 24 25 26 28 29 30 32 33 34 36 36 35 34 33 34 35 37 39 40 40 39 38 37 35 33 32 30 30 29 27 25 23 22 20 20 19 19 18 17 17 16 16 16 15 13 12 12 11 10 8 7 7 8 6 5 6 7 7 7 8 10 9 10 13 10 10 16 18 17 14 9 6 8 10 12 15 18 20 21
16 16 17 18 19 20 21 23 24 26 27 29 30 32 33 33 33 33 33 32 32 34 37 39 40 40 40 40 39 37 35 34 33 31 30 28 26 25 23 22 22 21 20 19 19 18 17 16 15 13 12 12 12 11 9 9 9 9 9 8 7 8 9 9 9 8 7 6 8 9 7 8 15 18 16 13 7 5 8 10 11 14 17 19 21
17 17 18 18 19 19 20 21 23 24 26 27 29 29 30 31 31 31 30 30 31 34 36 38 40 40 40 39 38 37 36 35 34 33 31 29 27 26 24 24 23 22 21 20 19 18 17 16 15 13 13 13 12 11 10 10 11 10 9 9 9 10 10 10 10 7 4 4 5 5 4 7 14 17 17 13 6 5 9 11 11 13 15 19 22
18 18 18 19 20 20 20 21 22 24 25 26 27 27 28 29 30 29 29 30 31 33 36 38 39 39 39 38 38 37 37 36 35 33 31 29 28 26 25 24 23 23 22 20 19 18 17 16 15 14 14 14 13 12 11 11 11 10 9 9 10 11 11 10 9 6 3 2 2 3 5 8 12 15 18 13 4 5 11 12 10 12 14 18 22
17 17 18 18 19 19 20 21 22 23 24 25 25 25 26 28 29 30 31 31 32 34 36 37 37 37 38 38 37 37 36 35 34 33 31 29 28 27 26 25 24 24 23 21 20 20 19 17 16 15 15 14 13 13 12 10 10 10 11 12 12 11 10 7 6 5 5 2 2 3 7 9 10 14 18 13 4 4 10 13 11 12 14 17 21
14 14 15 15 16 17 18 19 20 21 22 22 23 24 25 27 29 30 31 31 32 33 33 34 34 35 36 36 36 35 35 34 34 33 32 30 29 28 27 26 26 26 25 23 22 21 19 18 17 16 15 15 14 13 12 10 10 12 14 14 12 11 10 7 6 7 7 1 4 3 7 8 8 12 16 13 4 3 7 12 11 11 13 17 20
10 11 12 13 14 14 16 17 18 19 20 20 21 22 23 25 27 29 30 30 30 30 30 31 31 32 33 33 33 34 33 33 33 32 32 30 29 28 28 28 28 28 25 23 22 21 20 19 18 18 17 17 15 14 13 12 11 14 16 15 14 13 12 10 8 5 4 2 4 4 8 6 6 10 12 11 5 1 6 10 11 10 11 16 20
Wind_Direction
199 198 198 188 185 188 199 202 192 191 188 164 142 136 126 185 192 202 246 248 285 2 8 360 354 5 33 42 74 78 88 91 28 28 30 30 24 18 21 32 52 63 68 75 80 80 76 76 77 76 77 75 72 69 66 64 60 55 49 45 40 36 33 31 29 26 23 20 17 16 14 12 11 9 8 4 2 360 357 355 353 351 349 347 346
199 205 203 191 187 195 202 199 196 196 190 167 142 150 163 204 201 228 261 270 269 271 20 50 68 57 32 39 73 100 123 92 12 28 46 47 35 29 24 28 52 62 66 77 84 85 80 79 80 78 79 76 72 68 66 63 58 52 45 41 37 34 31 28 26 24 21 18 16 14 13 11 9 7 6 3 360 358 355 353 353 350 347 346 345
204 211 202 193 195 199 198 196 198 191 179 174 164 186 213 219 227 283 282 311 308 242 57 51 99 48 357 19 72 116 159 177 19 72 89 74 56 46 29 29 51 60 68 83 91 92 87 83 81 81 80 75 71 67 65 60 53 49 43 38 33 31 28 25 24 21 19 16 14 13 11 9 7 5 4 1 358 356 354 352 352 349 346 345 344
208 211 198 199 205 203 198 196 199 188 173 186 193 203 225 233 241 286 280 45 65 112 106 170 175 27 303 19 94 166 172 174 58 107 109 101 95 77 32 38 56 61 74 88 95 99 96 88 83 82 80 75 70 66 62 56 49 45 40 35 32 28 25 23 22 19 17 15 13 12 10 8 5 3 2 359 357 356 353 352 351 348 346 345 343
210 213 204 208 210 202 197 189 191 194 191 204 219 228 240 235 232 243 229 225 248 211 213 198 184 183 191 97 172 180 179 168 107 123 124 129 123 91 36 71 69 67 81 92 96 103 105 98 92 87 82 76 70 65 59 52 45 41 37 33 30 26 23 22 21 18 15 14 13 11 8 6 3 3 1 358 357 355 353 352 351 348 347 345 343
208 210 207 209 204 193 193 190 195 203 201 213 232 236 230 220 223 224 214 243 244 201 203 195 180 186 154 115 158 169 175 145 126 136 138 140 133 143 134 109 88 81 92 100 101 105 109 106 101 93 86 77 69 63 56 48 42 38 35 32 28 24 21 21 19 16 15 13 12 9 7 6 4 2 0 359 357 355 354 352 350 348 347 345 343
199 205 205 204 201 195 196 200 207 211 209 223 239 229 226 227 223 218 209 227 218 176 175 176 170 172 154 137 148 157 157 137 138 143 145 154 142 139 143 126 107 102 107 110 109 108 108 104 100 93 84 75 66 59 52 46 41 37 33 31 27 23 20 18 17 16 14 13 11 9 7 5 4 2 0 359 357 356 354 352 350 348 347 346 344
195 206 209 204 203 203 206 208 210 215 221 232 235 228 234 234 221 216 212 210 192 171 179 175 157 156 155 150 152 158 152 140 146 148 154 160 137 129 140 138 131 125 122 122 119 116 111 104 97 89 79 70 60 54 49 43 39 35 32 29 26 22 18 15 14 14 14 13 10 8 6 5 4 2 0 359 357 356 354 352 350 349 347 346 344
197 206 211 206 202 204 211 212 213 219 226 230 226 224 230 226 214 211 211 208 201 199 203 193 173 164 171 177 176 169 161 155 150 156 168 160 141 135 141 143 140 135 133 133 131 124 113 100 91 80 72 65 56 49 44 40 37 33 30 28 25 21 18 14 12 13 12 11 9 7 6 6 4 2 360 359 358 357 354 353 351 349 347 345 344
200 204 211 208 203 206 211 214 219 223 224 223 217 218 222 222 217 207 205 208 210 217 221 219 201 178 175 191 186 172 165 164 158 158 163 159 158 154 144 141 135 133 139 141 135 122 106 90 79 68 63 59 53 47 40 35 33 31 28 27 25 20 18 16 11 11 11 10 8 7 7 5 3 2 1 360 358 356 354 352 350 348 347 345 344
207 206 210 211 206 207 211 216 221 219 218 220 214 213 215 219 222 210 204 214 220 218 220 225 205 185 188 195 182 173 167 164 168 164 158 157 164 164 155 143 129 133 143 140 129 114 99 84 72 63 59 55 49 42 35 30 27 26 25 25 24 19 17 16 11 9 9 9 8 7 7 5 4 3 2 360 358 356 354 352 350 348 347 345 344
214 211 212 213 211 209 210 217 222 216 217 220 214 213 214 217 222 214 206 212 220 222 220 206 194 187 183 180 171 171 169 166 170 169 166 168 167 166 161 149 135 136 141 137 126 112 97 83 71 64 58 52 47 37 27 23 21 21 21 21 23 20 16 15 11 8 8 9 8 7 7 6 4 3 2 360 357 355 353 351 350 348 347 345 344
219 217 216 215 214 213 212 217 222 220 222 223 218 216 217 220 223 220 216 215 215 218 219 195 187 176 153 157 157 160 162 168 175 175 177 183 177 169 162 159 149 139 140 137 129 114 96 81 70 64 56 48 42 30 19 17 15 15 16 16 20 21 17 15 11 7 7 9 8 7 7 6 5 3 1 359 357 355 353 351 349 348 347 346 345
221 219 218 217 215 215 215 217 220 222 224 224 221 218 218 222 223 221 217 216 215 214 211 195 189 175 153 142 143 157 162 171 178 182 188 187 181 175 167 168 161 151 150 142 130 116 97 82 68 62 54 45 34 21 13 12 11 11 11 12 17 19 17 14 11 9 8 9 8 8 7 6 4 3 1 358 356 355 353 351 349 348 347 346 344
221 220 218 217 216 216 217 218 219 221 222 222 220 218 219 220 221 222 216 211 212 212 213 205 190 170 155 145 152 157 162 178 178 184 193 187 180 179 175 177 171 165 166 151 132 116 99 84 68 62 53 40 26 14 9 9 8 6 5 8 14 17 15 14 12 10 9 8 8 9 8 6 4 2 360 358 356 355 353 351 350 348 347 345 343
220 219 218 217 216 217 217 218 220 221 222 221 220 218 219 219 220 222 217 210 207 208 215 214 199 180 160 140 157 154 183 193 175 178 187 178 175 181 180 183 179 174 177 162 137 116 100 83 64 61 53 36 19 10 8 7 5 3 3 7 12 15 15 14 12 10 9 9 10 10 7 5 3 1 360 358 356 355 353 351 349 348 346 344 342
220 220 219 217 217 217 216 217 219 220 221 221 221 220 220 221 220 220 220 218 213 207 210 214 212 204 193 165 139 159 225 180 164 176 189 179 172 180 185 190 186 180 183 174 148 117 97 79 59 60 48 29 12 5 4 3 2 1 2 7 12 14 16 15 12 10 9 9 10 9 6 4 3 1 360 358 356 355 353 351 349 348 346 343 341
220 220 220 219 219 218 216 216 217 218 220 221 222 221 220 221 222 224 226 226 219 208 204 208 214 216 216 214 205 232 197 164 156 168 191 191 180 172 180 194 196 187 184 183 168 130 99 78 54 55 44 18 5 0 360 359 359 1 1 7 13 14 16 16 13 11 9 9 10 8 6 4 3 1 359 358 356 354 353 350 349 347 344 342 339
221 221 222 221 221 221 219 218 218 220 221 222 223 222 222 223 225 228 228 226 219 209 205 207 209 215 224 227 230 243 199 169 169 155 168 204 198 181 177 183 194 195 186 188 184 158 110 83 51 43 33 5 357 354 354 354 357 359 359 8 15 14 17 16 11 10 8 9 11 9 6 4 2 360 358 357 356 354 352 350 349 346 342 340 339
223 223 223 224 224 223 222 221 221 222 223 223 223 223 224 224 225 227 227 226 220 212 209 209 209 214 221 225 231 237 210 189 190 178 149 176 201 198 189 181 184 186 183 184 187 178 137 90 52 33 15 345 345 348 346 349 355 356 357 9 15 15 19 17 10 8 7 9 11 10 6 2 1 358 357 357 355 353 351 349 348 344 339 339 341
225 225 225 226 226 226 225 224 224 224 223 224 223 223 224 223 223 223 224 225 221 217 215 214 214 217 220 220 222 224 217 209 203 188 165 148 183 206 191 184 188 187 187 172 175 185 166 114 49 23 1 336 330 336 337 345 352 352 357 12 16 15 20 17 11 8 6 7 9 8 4 1 359 357 356 355 353 352 350 349 347 341 338 341 342
225 225 226 227 227 227 226 226 226 225 224 224 224 224 225 226 226 225 225 223 218 218 220 222 223 223 225 223 215 209 206 206 200 191 178 165 171 193 186 181 187 191 196 198 185 190 185 168 58 341 335 325 315 323 331 342 348 349 358 13 13 12 17 16 13 10 6 6 7 5 2 359 357 356 355 354 352 351 349 348 345 339 338 342 342
224 224 225 226 227 227 227 227 227 227 225 225 225 226 227 228 228 227 225 221 217 219 223 228 229 226 227 228 221 212 203 199 198 191 182 172 161 172 183 180 184 194 202 206 204 206 198 198 211 256 302 308 309 319 329 339 343 345 358 10 10 10 15 15 15 11 5 4 5 2 359 356 355 355 354 352 351 349 348 347 343 338 339 343 343
222 223 223 224 225 226 226 226 227 227 226 226 226 227 228 228 227 225 223 220 220 223 225 227 227 225 226 229 230 223 211 208 207 197 192 188 172 155 168 173 180 199 199 199 205 209 202 200 210 239 281 300 311 316 325 335 337 342 359 9 7 10 14 16 18 12 4 2 1 358 355 354 355 354 352 350 349 348 348 346 343 340 341 345 344
220 221 222 222 222 224 224 225 226 227 226 226 227 227 226 226 225 222 220 220 224 227 226 225 226 227 229 228 229 228 219 220 216 202 194 183 167 151 154 165 172 188 188 196 205 203 197 202 215 238 266 291 305 307 317 328 330 340 2 8 8 13 16 18 20 11 2 1 358 355 354 354 354 352 350 349 348 348 348 346 344 342 342 344 345
220 221 222 221 222 224 224 224 225 226 226 226 226 227 226 225 224 222 222 224 229 229 226 225 225 227 230 227 225 226 223 221 213 202 194 182 170 158 152 152 170 183 186 205 209 201 191 193 213 238 259 281 290 294 310 321 325 343 3 8 11 16 17 19 19 10 1 359 357 353 353 353 352 350 348 348 348 349 348 346 346 344 344 345 346
223 223 223 222 223 224 224 224 224 225 225 224 225 226 226 224 224 225 226 228 229 226 223 223 224 225 226 224 221 219 218 215 209 204 200 193 182 172 164 150 146 201 207 208 207 203 191 180 198 234 252 269 274 287 308 316 325 349 1 8 14 15 15 16 14 9 3 360 355 353 353 352 350 348 348 349 350 350 349 347 347 346 346 346 346
226 226 226 225 224 224 224 225 224 224 224 223 224 225 224 225 226 227 227 227 225 222 221 222 224 225 223 220 218 213 211 211 207 204 202 197 188 181 177 167 157 171 216 209 201 194 189 184 192 222 241 255 271 292 307 314 329 352 360 7 14 13 12 12 9 9 7 1 355 353 353 351 349 348 349 351 352 351 349 348 348 348 348 348 347
229 229 229 228 226 226 225 224 223 223 223 223 224 225 224 226 227 228 229 226 222 220 222 224 226 225 220 218 215 211 208 208 206 204 201 197 188 182 183 182 175 162 156 204 217 183 177 189 198 216 235 249 275 294 303 314 333 352 360 5 11 12 9 5 4 10 10 2 356 354 353 350 349 350 351 353 353 351 350 349 348 349 349 349 349
230 230 231 229 227 226 225 223 222 222 223 223 224 224 224 225 225 228 229 225 219 219 223 227 227 224 219 216 212 209 208 206 204 202 198 193 187 182 184 187 184 176 161 169 211 192 177 185 202 217 236 253 277 292 303 318 336 353 357 359 10 11 4 0 5 14 15 5 357 355 353 350 351 352 353 354 353 351 350 349 349 349 350 350 351
230 230 229 227 225 224 223 222 221 221 222 223 223 222 222 222 223 224 223 219 218 221 225 229 229 225 220 214 210 207 206 203 199 197 192 188 186 184 186 185 182 185 177 160 163 193 188 187 198 217 238 260 279 290 306 320 335 349 350 354 9 7 1 4 10 19 23 10 358 356 354 352 354 355 355 354 352 352 350 348 349 350 351 351 351
229 228 227 225 223 221 220 219 220 221 222 221 220 219 219 220 221 220 218 217 220 223 227 229 228 225 220 213 208 205 203 199 194 191 188 186 185 186 188 186 184 185 185 178 166 166 185 197 207 223 241 262 276 284 306 317 329 342 344 353 4 3 2 8 12 21 28 17 0 356 355 353 355 357 357 355 352 351 351 349 350 352 353 352 351
228 226 225 223 222 221 220 219 220 221 221 220 218 217 216 217 217 216 216 217 220 222 223 223 221 221 217 210 206 203 199 195 191 188 187 185 186 188 189 189 189 188 188 191 187 168 180 202 214 226 240 252 259 279 308 309 317 333 343 354 356 359 5 7 13 24 30 20 2 358 360 355 355 358 357 355 353 352 351 350 352 354 354 352 351
228 226 225 223 223 223 222 222 224 224 223 220 216 214 214 214 213 213 215 216 218 220 219 219 218 216 211 207 203 198 194 193 190 187 187 187 187 189 191 192 193 194 193 194 199 193 186 195 208 221 231 236 229 276 306 302 312 328 341 357 357 2 8 6 13 25 28 19 3 1 7 359 358 360 357 356 354 352 352 352 354 357 355 353 351
228 227 227 225 223 223 225 228 229 228 225 220 216 213 212 212 212 213 215 217 218 219 219 219 216 211 206 204 201 194 190 190 189 187 188 189 190 191 193 196 195 197 197 195 202 207 199 197 205 213 217 213 215 274 295 293 310 322 333 358 5 9 10 6 16 28 27 17 4 3 10 4 1 0 357 357 356 353 353 354 355 357 355 353 352
228 228 228 227 226 227 229 230 229 228 225 219 216 214 213 214 215 216 217 218 219 221 221 220 216 209 204 202 198 193 189 188 188 188 189 190 192 192 195 198 198 199 200 198 204 213 213 207 204 211 222 209 215 267 278 280 306 319 328 355 5 13 17 13 20 28 25 18 7 3 11 10 4 1 356 354 356 355 355 356 357 357 355 353 352
228 228 228 228 228 227 228 229 229 229 226 221 218 216 214 215 218 219 218 219 220 222 223 221 215 208 203 201 198 193 191 189 188 188 190 192 193 194 197 200 201 202 202 204 208 214 218 215 206 209 223 220 229 258 266 278 307 316 322 350 3 11 19 21 25 25 18 15 10 3 10 16 10 5 0 353 353 355 355 358 359 357 355 353 352
229 229 229 227 224 224 229 234 235 232 229 225 222 218 215 215 217 218 218 218 220 221 221 218 213 207 203 202 199 196 194 192 191 190 192 193 194 196 198 200 202 204 204 206 209 212 216 218 215 215 221 226 234 244 260 286 310 313 317 344 359 7 17 23 27 21 10 10 13 6 5 16 15 7 5 357 351 354 356 360 3 358 355 353 352
230 228 226 225 228 233 238 239 237 233 229 225 222 218 215 216 217 216 215 216 218 220 219 216 210 205 203 202 201 199 198 196 195 193 193 194 195 197 199 201 202 203 205 206 208 211 212 214 219 223 225 231 233 236 257 286 306 312 324 342 353 2 14 20 15 9 6 7 17 13 1 14 18 8 5 1 353 355 358 2 9 3 355 353 352
237 236 234 236 238 237 235 234 234 231 227 223 221 218 217 218 218 215 213 214 217 218 216 213 207 203 202 203 203 202 201 200 199 198 196 196 196 197 200 203 204 204 204 205 208 209 211 216 221 223 226 229 229 236 253 276 294 312 333 344 351 356 4 15 7 360 4 4 13 16 1 10 18 10 5 4 357 357 358 4 14 7 355 352 353
242 243 242 239 235 230 229 231 232 228 224 222 220 218 218 218 216 214 213 215 217 216 212 208 205 203 202 202 203 203 203 201 201 201 201 201 200 199 200 202 204 204 205 206 209 209 210 217 221 221 226 230 230 235 246 262 280 310 331 340 351 348 346 1 6 360 1 358 5 17 7 4 13 12 7 5 3 2 1 10 17 7 354 352 355
243 244 243 239 234 231 231 231 229 225 223 222 221 220 220 220 218 215 215 215 215 214 209 205 203 203 203 202 202 203 203 201 200 201 203 205 206 206 206 207 207 207 205 205 209 212 212 217 221 218 222 229 231 234 240 250 265 294 320 332 348 343 333 349 4 4 359 351 355 13 14 1 6 12 9 5 4 6 9 17 14 1 353 354 357
238 238 238 237 235 235 234 231 228 226 226 226 225 223 222 222 220 216 213 212 212 212 209 205 203 203 202 201 202 202 202 201 201 202 204 206 207 208 209 211 213 213 212 210 212 214 215 219 222 221 225 232 233 231 234 239 254 283 310 325 337 331 328 346 351 348 353 349 348 358 6 359 359 8 12 6 5 14 19 21 11 357 354 357 358
234 235 236 237 237 237 236 233 231 231 231 230 228 226 224 223 221 217 214 213 214 212 209 206 204 203 201 200 201 202 202 202 202 203 204 206 208 208 208 210 213 215 216 216 217 219 221 223 223 223 229 234 231 228 230 237 253 277 297 308 306 294 308 324 308 314 339 346 340 343 352 356 354 3 12 8 7 26 25 21 12 358 357 360 360
239 241 240 240 239 238 237 235 234 234 233 232 229 226 224 222 219 217 216 217 216 212 209 207 205 204 202 200 200 201 202 203 204 205 206 206 208 208 209 212 214 216 216 218 221 225 228 230 229 231 236 235 233 231 234 248 263 271 280 286 275 269 288 301 294 308 332 337 331 333 341 352 350 356 9 11 15 39 26 16 11 360 359 3 2
239 243 244 243 241 240 238 237 236 235 232 231 229 225 222 219 216 216 216 216 215 214 211 208 206 206 205 203 202 201 201 203 205 207 207 208 208 208 209 213 216 218 219 220 222 225 228 232 235 238 238 235 236 237 244 260 266 267 271 272 269 275 289 299 302 315 332 326 323 330 331 344 347 350 1 13 33 57 28 16 14 5 1 4 4
230 235 238 240 241 241 238 235 233 232 231 230 228 224 220 217 215 216 217 217 217 215 213 210 209 209 208 207 206 204 204 204 206 208 208 209 210 210 211 214 218 220 220 221 224 227 230 234 237 237 236 236 238 244 254 265 266 266 270 270 276 285 290 296 301 315 344 328 322 331 316 332 344 344 353 11 47 69 35 22 19 15 6 3 4
228 231 233 235 238 238 236 233 231 231 231 229 226 224 220 217 216 218 220 220 219 217 215 212 211 211 211 210 209 208 207 207 207 209 210 211 212 212 214 217 220 222 222 222 224 227 230 233 234 233 232 234 240 250 259 263 264 266 266 265 273 277 279 291 301 308 347 351 314 329 326 330 341 342 349 6 57 79 38 26 18 20 13 3 3
228 231 232 233 236 236 236 233 231 231 231 229 226 224 221 217 217 219 220 221 221 219 216 215 213 213 212 212 212 211 210 210 210 210 211 212 213 214 216 219 221 224 223 221 221 225 227 229 232 232 231 232 239 251 255 252 253 257 253 255 264 264 263 281 296 300 331 356 213 315 330 328 339 344 348 2 69 102 36 26 17 17 14 3 1
230 232 234 235 235 236 236 235 233 233 233 231 226 223 221 219 219 221 222 221 219 218 217 215 215 214 213 213 213 214 214 214 214 212 212 214 214 215 217 219 221 224 223 220 220 223 224 227 231 231 231 232 235 242 245 241 237 244 249 254 257 252 249 254 260 287 318 305 191 306 329 320 336 352 351 356 27 97 29 19 14 14 9 359 358
231 234 236 238 237 237 235 234 233 233 234 231 226 222 221 220 220 222 221 218 216 215 215 215 215 216 216 216 216 216 217 218 217 215 215 216 216 218 219 219 221 225 225 223 224 226 226 227 230 229 228 231 234 238 244 243 235 241 251 256 255 248 246 245 243 268 313 176 190 301 324 311 328 356 1 4 14 7 350 1 13 18 2 351 355